Preview of NWS' New Version of Forecast
This preview is not operational and should not be used for support decisions.

Regional Weather Roundup (RWR)

Issued by National Weather Service (NWS)

                            
000
ASUS45 KABQ 192110
RWRNM 
NEW MEXICO REGIONAL WEATHER ROUNDUP
NATIONAL WEATHER SERVICE ALBUQUERQUE NM
300 PM MDT WED JUN 19 2019

NOTE: "FAIR" MEANS FEW OR NO CLOUDS BELOW 12,000 FEET AGL WITH NO
       SIGNIFICANT WEATHER OR OBSTRUCTIONS TO VISION.

      THIS PRODUCT IS RELEASED AS TWO VERSIONS.  ONE VERSION NEAR
      THE TOP OF THE HOUR CONTAINING PRELIMINARY DATA FROM ALBUQUERQUE
      AND OTHER STATIONS.  A FINAL VERSION WITH ADDITIONAL DATA IS 
      ISSUED ABOUT 10 MINUTES AFTER THE HOUR.
 
NMZ501-503-504-510>518-192200-
NORTHWEST PLATEAU/NORTHCENTRAL MOUNTAINS
  
CITY           SKY/WX    TMP DP  RH WIND       PRES   REMARKS
FARMINGTON     FAIR      86  30  13 W14G31    30.02F                  
LOS ALAMOS       N/A     79  27  14 W18G29    30.14F                  
SANTA FE       FAIR      86  30  13 W15G24    30.05F                  
TAOS           FAIR      79  33  19 W20G29    30.12F                  
ANGEL FIRE       N/A     69  35  29 W17G26    30.19F                  

$$
NMZ402-403-502-505>509-192200-
WESTCENTRAL MOUNTAINS/SOUTHWEST MOUNTAINS
  
CITY           SKY/WX    TMP DP  RH WIND       PRES   REMARKS
GALLUP         PTSUNNY   83  32  16 W9        30.13F                  
GRANTS         FAIR      83  30  14 NW14      30.14F                  
SILVER CITY    FAIR      88  19   8 W15G24    30.10F                  

$$
NMZ407-409-411-412-192200-
SOUTHERN DESERTS
  
CITY           SKY/WX    TMP DP  RH WIND       PRES   REMARKS
DEMING         FAIR      93  16   6 W14G23    30.01F                  
LAS CRUCES     FAIR      94  24   8 SW15G26   30.01F                  
HOLLOMAN AFB   FAIR      93  23   8 SW10      29.98F                  
ALAMOGORDO     FAIR      93  23   8 W6        29.98F                  
T OR C         FAIR      92  25   9 CALM      29.99F                  

$$
NMZ519>523-192200-
CENTRAL VALLEYS/CENTRAL HIGHLANDS
  
CITY           SKY/WX    TMP DP  RH WIND       PRES   REMARKS
ALBUQUERQUE    FAIR      89  31  12 NW15G28   30.01F                  
DOUBLE EAGLE     N/A     88  32  13 W17G29    30.06F                  
MORIARTY ARPT  FAIR      87  28  11 W21G30    30.08F                  
CLINES CORNERS FAIR      81  30  15 NW21G39   30.13F                  
BELEN          FAIR      90  30  12 NW17G26   30.01F                  
SOCORRO        FAIR      90  29  11 SE8G17    29.98F                  

$$
NMZ524>526-539-540-192200-
SOUTHCENTRAL MOUNTAINS
  
CITY           SKY/WX    TMP DP  RH WIND       PRES   REMARKS
RUIDOSO        FAIR      82  23  11 NW16G30   30.17S                  

$$
NMZ527>531-192200-
NORTHEAST HIGHLANDS/NORTHEAST PLAINS
  
CITY           SKY/WX    TMP DP  RH WIND       PRES   REMARKS
LAS VEGAS      FAIR      80  31  16 NW13      30.07F                  
RATON          PTSUNNY   84  32  15 NW13G18   30.00F                  
CLAYTON        FAIR      81  44  27 VRB5      29.95F                  

$$
NMZ532>537-192200-
EASTCENTRAL PLAINS
  
CITY           SKY/WX    TMP DP  RH WIND       PRES   REMARKS
SANTA ROSA     FAIR      90  36  14 W15G28    29.92F                  
TUCUMCARI      FAIR      89  47  23 E12       29.86F                  
CANNON AFB     FAIR      90  41  18 W12G18    29.93F                  
CLOVIS AIRPORT FAIR      87  46  24 VRB3      29.92F                  

$$
NMZ028-029-538-192200-
SOUTHEAST PLAINS
  
CITY           SKY/WX    TMP DP  RH WIND       PRES   REMARKS
ROSWELL        FAIR     101  31   8 MISG      29.86F                  
ARTESIA        FAIR      97  41  14 VRB5      29.88F                  
CARLSBAD       FAIR      98  32  10 SW10G18   29.85F                  
HOBBS          SUNNY     97  32  10 W21G29    29.90F                  


$$